Simultaneous Nadir Overpasses (SNOs) Predictions

Prediction of SNOs between METOP-A and TERRA Satellite Orbit:

Table of predicted SNOs for the next 14.0 days since TLE Epoch: 10/19/2013
Index Date (METOP-A) Time (METOP-A) Lat,Lon (METOP-A) SZA (METOP-A ) Date (TERRA) Time (TERRA) Lat,Lon (TERRA) SZA (TERRA ) Distance(km) Time Diff (sec)
1 10/20/2013 04:30:32 81.32, 159.96 94.88 10/20/2013 04:30:39 81.32, 159.83 94.87 2.32 7
2 10/20/2013 05:21:12 -81.32, -32.45 85.09 10/20/2013 05:20:06 -81.32, -32.64 85.14 3.29 66
3 10/22/2013 23:14:26 -81.23, 54.21 84.74 10/22/2013 23:15:40 -81.08, 54.58 84.77 17.76 74
4 10/23/2013 00:04:55 81.31,-133.88 95.85 10/23/2013 00:04:56 81.31,-133.98 95.83 1.69 1
5 10/23/2013 00:55:34 -81.32, 34.14 84.06 10/23/2013 00:54:22 -81.33, 33.98 84.11 2.74 72
6 10/25/2013 18:48:38 -81.31, 124.61 83.26 10/25/2013 18:49:49 -81.30, 124.62 83.23 0.80 71
7 10/25/2013 19:39:17 81.31, -67.40 96.84 10/25/2013 19:39:14 81.32, -67.27 96.85 2.32 3
8 10/28/2013 14:22:59 -81.31,-168.92 82.30 10/28/2013 14:24:09 -81.30,-168.90 82.27 0.57 70
9 10/28/2013 15:13:39 81.31, -1.36 97.74 10/28/2013 15:13:35 81.31, -1.20 97.75 2.84 4
10 10/31/2013 09:57:20 -81.31,-102.11 81.33 10/31/2013 09:58:32 -81.31,-102.29 81.32 2.93 72
11 10/31/2013 10:48:00 81.31, 65.40 98.70 10/31/2013 10:47:58 81.32, 65.39 98.70 0.17 2
